TimeEST,TemperatureF,Dew PointF,Humidity,Sea Level PressureIn,VisibilityMPH,Wind Direction,Wind SpeedMPH,Gust SpeedMPH,PrecipitationIn,Events,Conditions,WindDirDegrees,DateUTC
12:51 AM,42.1,34.0,73,30.21,10.0,West,8.1,-,N/A,,Partly Cloudy,270,2012-11-10 05:51:00
1:51 AM,42.1,35.1,76,30.23,10.0,West,6.9,-,N/A,,Partly Cloudy,280,2012-11-10 06:51:00
2:51 AM,43.0,34.0,71,30.23,10.0,West,9.2,-,N/A,,Partly Cloudy,280,2012-11-10 07:51:00
3:51 AM,43.0,35.1,74,30.24,10.0,West,8.1,-,N/A,,Partly Cloudy,270,2012-11-10 08:51:00
4:51 AM,42.1,35.1,76,30.26,10.0,West,8.1,-,N/A,,Partly Cloudy,270,2012-11-10 09:51:00
5:51 AM,42.1,35.1,76,30.27,10.0,WNW,10.4,-,N/A,,Partly Cloudy,290,2012-11-10 10:51:00
6:51 AM,44.1,35.1,71,30.30,8.0,WNW,9.2,-,N/A,,Scattered Clouds,290,2012-11-10 11:51:00
7:51 AM,46.0,36.0,68,30.33,9.0,WNW,8.1,-,N/A,,Scattered Clouds,290,2012-11-10 12:51:00
8:51 AM,48.9,37.9,66,30.34,8.0,West,3.5,-,N/A,,Mostly Cloudy,280,2012-11-10 13:51:00
9:51 AM,50.0,39.0,66,30.34,7.0,Variable,3.5,-,N/A,,Mostly Cloudy,0,2012-11-10 14:51:00
10:51 AM,50.0,37.9,63,30.33,7.0,WSW,6.9,-,N/A,,Mostly Cloudy,250,2012-11-10 15:51:00
11:51 AM,53.1,39.0,59,30.32,7.0,WSW,5.8,-,N/A,,Mostly Cloudy,250,2012-11-10 16:51:00
12:51 PM,53.1,39.0,59,30.31,8.0,WSW,5.8,-,N/A,,Mostly Cloudy,240,2012-11-10 17:51:00
1:51 PM,53.1,39.9,61,30.32,8.0,SW,8.1,-,N/A,,Mostly Cloudy,220,2012-11-10 18:51:00
2:51 PM,52.0,39.0,61,30.33,9.0,SW,8.1,-,N/A,,Overcast,220,2012-11-10 19:51:00
3:51 PM,52.0,37.9,59,30.34,9.0,SW,8.1,-,N/A,,Overcast,220,2012-11-10 20:51:00
4:51 PM,51.1,37.9,61,30.35,9.0,SW,4.6,-,N/A,,Overcast,220,2012-11-10 21:51:00
5:51 PM,52.0,39.0,61,30.38,9.0,SW,4.6,-,N/A,,Overcast,220,2012-11-10 22:51:00
6:51 PM,51.1,41.0,68,30.39,10.0,South,4.6,-,N/A,,Overcast,180,2012-11-10 23:51:00
7:51 PM,51.1,39.9,66,30.40,10.0,South,4.6,-,N/A,,Overcast,190,2012-11-11 00:51:00
8:51 PM,50.0,39.9,68,30.42,9.0,Calm,Calm,-,N/A,,Mostly Cloudy,0,2012-11-11 01:51:00
9:51 PM,48.9,41.0,74,30.43,10.0,South,4.6,-,N/A,,Mostly Cloudy,190,2012-11-11 02:51:00
10:51 PM,46.9,39.9,77,30.43,10.0,Calm,Calm,-,N/A,,Scattered Clouds,0,2012-11-11 03:51:00
11:51 PM,46.0,41.0,83,30.44,10.0,Calm,Calm,-,N/A,,Scattered Clouds,0,2012-11-11 04:51:00